Temp
3 3 3 3 3 2 2 1 1 1 1 1 1 0 -0 -0 0 0 1 0 0 0 0 0 0 0 1 0 1 1 1 1 1 1 1 1 1 -0
3 3 3 3 2 2 1 1 0 0 0 -0 -0 0 0 0 0 1 1 1 1 0 0 0 0 0 0 0 0 0 1 1 0 1 1 1 -0 -1
2 2 2 1 1 1 1 0 0 -0 -0 -0 -0 0 0 0 0 0 0 -0 0 0 0 0 1 0 -0 -0 -1 -0 0 0 -0 0 1 -0 -1 -1
2 1 0 1 0 0 0 -0 -0 -0 0 0 1 1 1 0 0 0 0 0 0 0 0 0 -0 0 -0 -1 -1 -1 -1 -1 -1 -1 -1 -1 -1 -2
1 1 0 0 0 0 0 -0 -0 -0 0 1 1 0 1 0 0 0 0 0 0 0 0 0 -0 -0 -1 -1 -2 -2 -1 -1 -1 -2 -1 -1 -1 -2
0 0 -0 -0 -0 -0 -0 -1 -0 -0 0 1 1 1 0 0 0 -0 -0 -0 -0 -0 -0 -0 -1 -1 -1 -2 -2 -3 -3 -3 -3 -2 -2 -2 -2 -2
-0 -0 -1 -1 -1 -1 -1 -1 -0 -0 0 1 1 1 1 1 0 -0 -0 -0 -0 -0 -1 -1 -1 -2 -2 -2 -3 -3 -3 -3 -4 -3 -3 -3 -3 -2
-1 -1 -1 -1 -1 -1 -1 -1 -0 -0 0 1 1 1 0 0 0 -0 -0 -1 -1 -1 -1 -2 -2 -2 -3 -3 -3 -3 -3 -4 -3 -2 -3 -3 -3 -3
-1 -1 -1 -1 -1 -1 -1 -1 -0 -0 -0 -0 -0 -0 -0 -0 -0 -0 -0 -1 -1 -2 -2 -2 -2 -3 -3 -3 -3 -3 -3 -3 -4 -4 -3 -3 -3 -3
-1 -1 -1 -1 -1 -1 -1 -1 -1 -0 -1 -1 -1 -1 -0 -1 -1 -1 -1 -1 -2 -3 -3 -3 -3 -4 -3 -3 -3 -3 -3 -3 -3 -3 -3 -3 -3 -3
-2 -2 -1 -1 -1 -1 -1 -1 -1 -1 -1 -1 -1 -1 -1 -1 -1 -2 -1 -2 -3 -4 -4 -4 -3 -4 -3 -3 -3 -3 -3 -3 -3 -3 -2 -2 -2 -2
-2 -2 -2 -2 -2 -2 -1 -1 -2 -1 -1 -1 -2 -2 -2 -2 -2 -2 -2 -3 -4 -4 -4 -4 -4 -4 -4 -3 -3 -3 -3 -3 -3 -3 -3 -3 -3 -3
-3 -2 -2 -2 -2 -2 -1 -1 -2 -1 -2 -2 -2 -2 -3 -3 -3 -3 -3 -4 -5 -5 -4 -4 -4 -4 -4 -4 -4 -4 -4 -4 -4 -3 -4 -4 -4 -4
-3 -3 -3 -3 -2 -2 -2 -2 -2 -2 -2 -2 -3 -3 -4 -4 -4 -4 -4 -4 -5 -5 -5 -4 -4 -4 -4 -4 -5 -5 -5 -5 -5 -5 -5 -5 -4 -4
-3 -3 -3 -3 -3 -3 -2 -2 -2 -2 -2 -3 -4 -5 -5 -4 -4 -5 -5 -5 -5 -5 -5 -5 -5 -5 -5 -5 -5 -5 -5 -6 -6 -7 -6 -6 -6 -6
-4 -3 -3 -3 -3 -3 -3 -3 -3 -3 -3 -4 -5 -5 -5 -5 -5 -5 -5 -5 -5 -5 -5 -5 -5 -5 -5 -5 -6 -6 -6 -6 -7 -7 -7 -7 -7 -7
-4 -4 -4 -3 -3 -3 -3 -3 -4 -4 -4 -5 -5 -6 -6 -6 -6 -6 -6 -6 -6 -6 -6 -6 -6 -6 -6 -7 -7 -6 -6 -6 -7 -6 -6 -6 -7 -7
-4 -4 -4 -3 -3 -4 -4 -4 -5 -5 -5 -5 -6 -6 -6 -7 -7 -6 -6 -6 -6 -6 -6 -7 -7 -7 -8 -7 -6 -6 -6 -6 -6 -6 -6 -6 -6 -6
-5 -4 -4 -4 -5 -5 -5 -5 -5 -5 -6 -6 -6 -6 -7 -7 -7 -7 -7 -7 -7 -6 -7 -7 -8 -8 -8 -7 -7 -6 -6 -6 -6 -6 -6 -6 -6 -6
-5 -5 -5 -6 -6 -6 -6 -6 -6 -6 -7 -7 -7 -7 -7 -7 -7 -7 -7 -7 -7 -7 -7 -7 -8 -8 -8 -7 -6 -6 -6 -7 -6 -6 -6 -6 -6 -6
-6 -6 -7 -7 -7 -7 -7 -7 -7 -7 -7 -7 -8 -8 -7 -7 -7 -7 -7 -8 -7 -7 -7 -8 -8 -7 -7 -7 -7 -7 -7 -7 -7 -7 -7 -7 -7 -7
-7 -7 -7 -7 -7 -8 -8 -8 -8 -8 -8 -8 -8 -8 -8 -8 -8 -8 -8 -8 -7 -7 -8 -8 -8 -8 -7 -7 -7 -7 -8 -8 -8 -8 -8 -8 -8 -8
-7 -8 -8 -8 -8 -8 -8 -8 -8 -8 -8 -8 -8 -8 -8 -8 -8 -8 -8 -8 -8 -8 -8 -8 -9 -9 -9 -9 -9 -9 -9 -9 -9 -9 -9 -9 -9 -9
Height
3134 3133 3134 3134 3134 3134 3133 3132 3130 3129 3127 3126 3123 3121 3120 3117 3115 3112 3110 3108 3106 3103 3099 3097 3094 3091 3089 3088 3086 3085 3084 3084 3085 3087 3089 3092 3094 3099
3127 3127 3128 3129 3129 3128 3127 3126 3123 3121 3118 3117 3114 3112 3112 3110 3109 3106 3104 3101 3098 3097 3094 3091 3088 3086 3084 3083 3081 3080 3080 3080 3080 3082 3084 3087 3090 3094
3121 3121 3121 3122 3122 3122 3121 3118 3116 3115 3112 3111 3109 3106 3104 3103 3101 3099 3097 3095 3092 3089 3086 3085 3082 3081 3079 3078 3076 3075 3076 3075 3076 3077 3079 3083 3086 3090
3114 3114 3115 3116 3116 3115 3115 3111 3109 3107 3105 3103 3101 3101 3098 3096 3094 3092 3088 3086 3084 3082 3079 3078 3076 3073 3074 3073 3072 3072 3072 3073 3074 3076 3076 3079 3083 3086
3107 3108 3110 3110 3110 3109 3106 3104 3103 3100 3098 3096 3094 3093 3092 3090 3087 3085 3084 3081 3078 3076 3074 3072 3070 3067 3068 3068 3068 3069 3069 3071 3073 3074 3076 3079 3080 3082
3101 3102 3103 3103 3103 3102 3100 3098 3096 3094 3091 3089 3087 3087 3085 3083 3081 3078 3078 3075 3072 3071 3068 3068 3064 3062 3063 3064 3064 3065 3067 3069 3072 3073 3075 3078 3078 3079
3095 3096 3097 3096 3096 3095 3094 3092 3089 3088 3085 3083 3081 3079 3077 3075 3073 3073 3070 3071 3067 3066 3063 3063 3060 3057 3059 3060 3061 3063 3065 3069 3071 3073 3074 3077 3079 3081
3088 3089 3089 3088 3087 3088 3086 3084 3083 3080 3077 3076 3074 3069 3070 3069 3066 3065 3064 3062 3064 3060 3058 3056 3056 3054 3054 3056 3058 3060 3062 3066 3069 3070 3073 3073 3077 3078
3080 3080 3081 3080 3079 3080 3079 3079 3076 3075 3071 3069 3066 3064 3063 3061 3060 3055 3054 3053 3055 3055 3054 3052 3051 3050 3051 3053 3055 3058 3060 3062 3065 3067 3069 3070 3074 3075
3073 3073 3073 3074 3072 3072 3072 3070 3067 3066 3064 3062 3058 3057 3053 3054 3055 3053 3048 3050 3051 3048 3049 3048 3047 3048 3049 3050 3052 3054 3057 3058 3061 3063 3066 3067 3069 3071
3066 3066 3066 3066 3065 3065 3063 3062 3062 3059 3057 3053 3051 3053 3048 3046 3050 3050 3044 3044 3045 3044 3044 3044 3045 3045 3046 3048 3050 3051 3053 3055 3056 3057 3060 3061 3063 3065
3059 3059 3059 3058 3057 3058 3056 3055 3056 3051 3049 3047 3044 3044 3041 3041 3039 3042 3039 3039 3039 3039 3040 3041 3042 3043 3044 3045 3047 3048 3049 3051 3052 3054 3055 3057 3059 3061
3051 3051 3052 3051 3051 3050 3048 3047 3047 3044 3042 3041 3039 3040 3034 3036 3035 3035 3035 3035 3035 3035 3036 3038 3039 3040 3041 3042 3044 3046 3047 3049 3050 3051 3052 3054 3056 3058
3043 3045 3044 3044 3042 3044 3042 3039 3038 3037 3036 3034 3032 3032 3031 3031 3030 3031 3031 3030 3031 3032 3033 3034 3036 3037 3038 3040 3042 3043 3044 3045 3046 3047 3048 3049 3051 3053
3036 3037 3035 3037 3037 3036 3035 3033 3030 3029 3028 3027 3026 3026 3026 3026 3027 3026 3026 3027 3028 3029 3030 3031 3032 3033 3035 3037 3038 3039 3040 3041 3041 3042 3043 3045 3047 3049
3028 3027 3028 3030 3032 3028 3028 3025 3023 3021 3021 3021 3020 3020 3021 3022 3022 3022 3022 3023 3024 3025 3026 3028 3029 3030 3032 3033 3035 3035 3036 3037 3037 3037 3039 3040 3042 3044
3018 3022 3021 3023 3021 3019 3018 3017 3016 3015 3015 3015 3015 3015 3016 3017 3017 3017 3018 3019 3020 3022 3023 3024 3025 3026 3027 3029 3031 3031 3032 3033 3034 3034 3035 3036 3037 3039
3011 3014 3013 3013 3012 3010 3009 3009 3008 3009 3009 3009 3010 3010 3010 3011 3012 3012 3013 3014 3015 3017 3018 3019 3020 3021 3022 3024 3025 3026 3027 3028 3028 3029 3030 3031 3032 3033
3003 3004 3003 3003 3002 3002 3002 3002 3002 3002 3003 3004 3005 3005 3006 3006 3007 3007 3008 3009 3010 3011 3012 3013 3013 3015 3016 3017 3019 3020 3021 3021 3022 3023 3023 3025 3025 3025
2994 2993 2993 2994 2994 2995 2995 2995 2996 2997 2997 2999 3000 3000 3001 3001 3002 3002 3003 3004 3005 3005 3007 3008 3008 3007 3008 3010 3013 3015 3014 3014 3014 3015 3015 3016 3017 3018
2985 2985 2986 2986 2987 2988 2989 2990 2990 2991 2992 2992 2993 2994 2994 2995 2995 2996 2996 2998 2998 2999 3001 3001 3000 3000 3002 3003 3006 3007 3005 3005 3005 3006 3006 3008 3008 3010
2978 2979 2979 2980 2980 2981 2982 2983 2984 2984 2985 2985 2986 2986 2986 2987 2988 2988 2989 2990 2990 2991 2992 2992 2991 2991 2992 2993 2995 2996 2996 2995 2995 2996 2997 2998 2998 2997
2970 2971 2972 2972 2973 2973 2974 2974 2975 2976 2977 2977 2978 2978 2979 2979 2980 2980 2981 2981 2981 2982 2982 2982 2981 2981 2982 2982 2983 2984 2984 2984 2984 2984 2985 2985 2985 2984
Wind_Speed
21 21 23 22 24 26 26 28 30 34 34 37 41 37 29 26 28 29 31 32 31 31 30 31 31 32 30 26 24 22 19 16 17 17 19 23 28 29
22 23 24 24 24 25 29 31 32 35 37 37 38 32 28 27 29 30 31 31 31 30 29 29 29 29 26 23 21 19 18 17 15 14 16 21 25 29
23 23 22 23 23 27 29 31 34 34 33 29 27 28 29 28 29 30 30 30 30 29 27 27 27 26 23 20 18 18 16 14 14 14 15 19 23 25
25 25 20 22 28 29 31 31 30 27 25 26 27 26 28 29 29 29 30 29 30 29 27 25 24 22 21 17 16 16 12 11 11 14 14 18 23 22
24 21 25 25 29 30 29 27 25 26 27 26 26 26 28 30 30 29 29 29 28 29 28 24 22 20 18 15 15 14 12 9 11 11 14 15 22 27
22 22 24 26 27 26 26 26 27 27 27 26 27 28 29 31 32 32 32 30 29 28 27 24 19 18 16 13 14 14 11 8 12 14 13 17 21 17
22 23 25 25 26 26 26 27 27 27 28 29 31 32 32 31 31 31 30 30 29 28 25 22 18 16 14 13 14 15 15 20 15 17 16 17 16 18
23 25 26 26 26 26 26 26 27 28 29 31 33 32 31 32 31 30 29 28 28 26 22 19 16 14 13 13 15 16 18 25 26 28 26 26 29 15
27 27 27 26 25 26 27 28 29 30 31 31 31 32 31 31 30 28 27 26 25 22 18 15 14 13 12 12 13 15 17 20 30 31 29 25 24 25
28 28 27 26 26 26 27 29 30 31 31 30 28 29 28 30 29 26 24 23 21 19 16 13 12 12 11 12 13 14 16 18 23 27 26 23 23 24
28 27 27 26 25 27 27 28 29 30 30 29 28 28 28 27 26 25 22 18 17 16 14 12 12 13 12 12 12 13 13 15 17 17 17 20 21 23
28 28 27 26 26 27 28 28 29 28 29 28 27 26 25 24 22 21 18 15 14 14 13 12 13 13 12 12 13 14 14 15 15 17 18 18 18 18
28 28 27 26 26 27 28 28 28 28 28 27 26 25 22 22 20 17 15 14 13 13 13 13 13 13 13 13 11 11 11 12 13 15 15 15 14 14
29 27 26 27 27 28 27 27 27 27 26 26 24 22 20 19 17 16 14 13 13 13 13 13 13 13 12 11 12 13 13 14 16 16 14 13 15 17
29 27 27 29 29 28 28 27 26 25 24 23 20 18 18 17 16 15 14 13 13 13 13 13 13 14 12 13 14 14 14 12 12 15 17 18 15 15
28 28 29 31 30 29 28 26 24 23 21 19 16 17 17 17 16 15 15 14 14 14 13 12 12 12 11 13 16 17 13 9 13 18 20 20 18 15
30 30 31 31 31 29 26 24 22 20 18 16 15 16 17 18 18 16 14 14 13 14 14 13 15 15 16 14 17 19 17 16 12 15 14 14 15 15
30 29 29 29 28 23 19 18 18 17 16 15 15 17 18 18 16 17 18 18 17 17 17 15 15 18 15 19 21 23 19 20 21 20 19 18 19 20
26 29 29 26 20 17 16 16 16 16 15 16 16 15 14 15 15 17 16 16 18 19 20 22 20 19 18 20 19 20 20 20 21 21 22 22 22 24
27 24 21 20 18 17 17 17 18 17 17 18 18 17 16 16 16 17 17 18 19 20 20 21 26 23 20 23 23 22 23 24 25 25 26 26 26 26
21 23 22 21 21 22 21 19 20 21 20 20 21 21 21 21 20 20 21 21 22 22 22 23 26 27 27 27 27 25 26 27 27 28 27 27 28 29
24 24 23 23 24 24 24 25 25 22 20 21 22 22 22 22 23 25 26 27 27 28 28 30 31 32 33 33 30 29 29 31 32 33 34 35 35 36
22 23 24 24 23 24 25 24 22 23 24 23 21 22 22 22 21 22 22 23 25 26 28 30 33 34 34 34 34 33 34 36 38 38 39 39 40 42
Wind_Direction
267 269 268 269 262 265 262 273 279 282 283 286 291 299 300 301 299 299 298 299 301 298 296 296 298 298 300 300 296 291 278 271 261 247 235 225 218 214
269 268 263 267 264 261 264 272 277 282 284 291 295 299 300 302 302 300 300 299 297 297 297 297 298 300 299 299 297 287 280 273 247 236 231 225 218 216
265 263 260 269 257 266 272 276 282 284 289 291 292 297 299 300 299 298 296 298 297 295 295 298 298 298 294 298 291 284 277 263 240 220 218 219 214 209
268 270 267 259 267 273 277 280 281 284 286 292 292 296 299 302 302 301 299 298 296 296 295 295 295 294 292 291 282 277 270 250 236 225 204 205 206 205
269 251 261 266 273 278 281 281 280 284 287 290 295 299 300 300 299 301 300 297 296 295 293 292 291 289 287 279 268 261 251 218 207 202 198 203 210 214
255 261 269 276 277 278 279 280 283 287 289 292 295 297 298 300 297 296 296 296 296 294 290 287 285 282 279 267 249 238 233 198 216 201 201 201 226 236
257 269 279 282 283 284 285 287 290 291 292 294 294 295 296 297 295 294 295 293 293 291 287 286 282 275 270 249 233 225 204 203 201 215 210 211 225 229
266 274 278 281 283 284 286 287 289 288 291 293 292 293 296 294 295 293 294 292 290 287 285 282 276 266 252 235 225 219 213 199 203 197 206 202 205 209
271 274 276 280 280 283 283 285 288 291 292 293 293 292 292 292 291 291 289 288 285 284 283 278 270 252 236 226 219 218 220 217 213 224 232 251 256 259
272 273 276 278 278 281 286 291 291 291 291 291 291 291 292 292 289 286 284 286 282 279 277 271 256 234 224 223 222 224 224 224 226 233 245 249 247 248
270 273 274 275 279 285 289 294 293 292 290 290 293 294 295 292 289 285 282 280 276 273 268 256 237 229 222 222 222 223 227 234 233 230 234 249 255 249
266 269 272 276 283 290 292 293 293 290 287 288 290 290 290 288 283 279 278 274 269 264 257 241 235 227 222 223 221 217 226 236 241 237 233 237 242 241
263 265 270 278 283 287 290 291 288 290 287 285 287 287 286 284 280 278 276 271 261 250 245 236 234 234 230 224 220 223 224 227 233 232 230 230 232 239
262 265 271 278 283 286 289 288 287 285 287 286 283 281 279 276 273 274 271 263 253 245 241 236 233 223 212 223 238 236 237 256 247 229 231 235 237 241
259 264 273 279 282 285 287 286 285 287 288 283 278 274 270 267 268 270 267 260 250 242 238 235 226 214 223 237 243 237 263 279 251 233 233 230 232 240
261 269 276 281 276 279 283 282 282 285 284 283 273 267 265 264 266 263 263 258 249 241 235 232 232 232 239 249 243 242 257 265 252 256 246 241 232 233
262 270 277 275 277 282 274 276 277 279 279 280 273 266 266 267 261 256 253 244 242 236 240 233 236 248 256 252 252 246 253 253 266 267 261 261 251 247
262 269 270 275 279 277 270 270 272 274 277 277 271 272 266 260 255 254 252 249 249 246 239 248 254 256 261 257 251 249 252 260 255 254 263 262 260 259
262 266 269 273 272 268 268 269 272 273 272 268 270 269 259 254 255 256 257 254 251 250 243 253 261 261 261 267 258 254 256 260 261 261 257 257 260 261
270 270 270 262 266 267 270 272 272 269 267 265 262 261 259 255 255 256 258 257 256 254 262 259 267 269 252 261 263 266 265 262 259 259 261 261 260 264
271 277 271 262 266 270 271 274 277 271 267 264 258 256 257 257 256 256 257 258 259 259 258 258 257 262 263 264 267 264 263 263 263 263 265 267 266 268
268 268 267 267 271 270 268 272 273 267 267 267 266 267 266 265 262 259 259 260 262 262 263 263 264 265 267 269 268 265 262 263 264 263 266 268 268 268
267 272 271 270 272 277 276 273 269 265 269 268 263 267 270 271 270 269 270 271 270 269 268 266 266 267 268 268 267 268 268 261 257 259 264 263 264 268